Sanford, NC

12:42 AM EDT on September 24, 2017 (GMT -0400)
Raleigh Executive Jetport

Weather History for KTTA - March, 2014

Change the Weather History Date:

Saturday, March 22, 2014

  Actual Average (KHRJ) Record (KHRJ)
Temperature  
Mean Temperature 58 °F -  
Max Temperature 75 °F 64 °F 84 °F (2011)
Min Temperature 41 °F 41 °F 26 °F (1965)
Degree Days  
Heating Degree Days 7    
Growing Degree Days 8 (Base 50)    
Moisture  
Dew Point 39 °F    
Average Humidity 53    
Maximum Humidity 93    
Minimum Humidity 23    
Precipitation  
Precipitation 0.00 in - - ()
Sea Level Pressure  
Sea Level Pressure 30.00 in    
Wind  
Wind Speed 5 mph (SW)    
Max Wind Speed 17 mph    
Max Gust Speed 23 mph    
Visibility 10 miles    
Events      
Averages and records for this station are not official NWS values.
T = Trace of Precipitation, MM = Missing Value Source: NWS Daily Summary

Daily Weather History Graph

Daily Weather History Graph

Search for Another Location

Airport or City:

Trip Planner

Search our weather history database for the weather conditions in past years. The results will help you decide how hot, cold, wet, or windy it might be!

Date:

Astronomy

Mar. 22, 2014 Rise Set
Actual Time 7:17 AM EDT 7:29 PM EDT
Civil Twilight 6:51 AM EDT 7:55 PM EDT
Nautical Twilight 6:22 AM EDT 8:25 PM EDT
Astronomical Twilight 5:51 AM EDT 8:55 PM EDT
Moon 12:37 AM EDT (3/22) 11:08 AM EDT (3/22)
Length of Visible Light 13h 03m
Length of Day
12h 12m
Waning Gibbous, 65% of the Moon is Illuminated
Mar 22
Waning Gibbous
Mar 23
Last Quarter
Mar 30
New
Apr 7
First Quarter
Apr 15
Full

Hourly Weather History & Observations

Time (EDT) Temp. Dew Point Humidity Pressure Visibility Wind Dir Wind Speed Gust Speed Precip Events Conditions
12:15 AM 54.5 °F 34.3 °F 47% 30.08 in 10.0 mi South 6.9 mph - N/A   Unknown
12:35 AM 54.0 °F 34.3 °F 47% 30.08 in 10.0 mi South 6.9 mph - N/A   Unknown
12:55 AM 54.1 °F 33.8 °F 46% 30.07 in 10.0 mi South 6.9 mph - N/A   Unknown
1:15 AM 53.8 °F 33.1 °F 45% 30.06 in 10.0 mi South 5.8 mph - N/A   Unknown
1:35 AM 53.6 °F 32.9 °F 45% 30.06 in 10.0 mi South 4.6 mph - N/A   Unknown
1:55 AM 53.1 °F 33.6 °F 48% 30.05 in 10.0 mi South 6.9 mph - N/A   Unknown
2:15 AM 52.7 °F 35.1 °F 51% 30.05 in 10.0 mi SSW 4.6 mph - N/A   Unknown
2:35 AM 52.0 °F 35.6 °F 54% 30.05 in 10.0 mi South 3.5 mph - N/A   Unknown
2:55 AM 51.1 °F 36.1 °F 57% 30.04 in 10.0 mi South 3.5 mph - N/A   Unknown
3:15 AM 51.6 °F 36.7 °F 57% 30.04 in 10.0 mi SW 3.5 mph - N/A   Unknown
3:35 AM 50.9 °F 36.9 °F 59% 30.04 in 10.0 mi South 3.5 mph - N/A   Unknown
3:55 AM 50.4 °F 37.4 °F 61% 30.04 in 10.0 mi SSW 3.5 mph - N/A   Unknown
4:15 AM 49.5 °F 36.9 °F 62% 30.04 in 10.0 mi Calm Calm - N/A   Unknown
4:35 AM 48.6 °F 37.2 °F 65% 30.03 in 10.0 mi Calm Calm - N/A   Unknown
4:55 AM 46.8 °F 37.8 °F 71% 30.03 in 10.0 mi Calm Calm - N/A   Unknown
5:15 AM 45.5 °F 37.6 °F 74% 30.03 in 10.0 mi Calm Calm - N/A   Unknown
5:35 AM 45.1 °F 38.3 °F 77% 30.03 in 10.0 mi Calm Calm - N/A   Unknown
5:55 AM 43.7 °F 38.3 °F 81% 30.03 in 10.0 mi Calm Calm - N/A   Unknown
6:15 AM 42.8 °F 38.1 °F 84% 30.03 in 10.0 mi Calm Calm - N/A   Unknown
6:35 AM 42.8 °F 38.5 °F 85% 30.04 in 10.0 mi Calm Calm - N/A   Unknown
6:55 AM 42.3 °F 38.3 °F 86% 30.04 in 10.0 mi Calm Calm - N/A   Unknown
7:15 AM 41.5 °F 38.8 °F 90% 30.04 in 10.0 mi Calm Calm - N/A   Unknown
7:35 AM 42.1 °F 38.7 °F 88% 30.05 in 10.0 mi Calm Calm - N/A   Unknown
7:55 AM 41.2 °F 38.7 °F 91% 30.05 in 10.0 mi Calm Calm - N/A   Unknown
8:15 AM 41.4 °F 39.0 °F 91% 30.05 in 10.0 mi Calm Calm - N/A   Unknown
8:35 AM 42.4 °F 40.5 °F 93% 30.05 in 10.0 mi Calm Calm - N/A   Unknown
8:55 AM 45.9 °F 42.4 °F 88% 30.05 in 10.0 mi Calm Calm - N/A   Unknown
9:15 AM 50.0 °F 44.2 °F 81% 30.05 in 10.0 mi Calm Calm - N/A   Unknown
9:35 AM 54.0 °F 44.8 °F 71% 30.05 in 10.0 mi SSW 6.9 mph - N/A   Unknown
9:55 AM 57.2 °F 44.2 °F 62% 30.05 in 10.0 mi SW 10.4 mph - N/A   Unknown
10:15 AM 59.0 °F 42.4 °F 54% 30.05 in 10.0 mi SW 10.4 mph 16.1 mph N/A   Unknown
10:35 AM 61.0 °F 42.8 °F 51% 30.05 in 10.0 mi WSW 9.2 mph - N/A   Unknown
10:55 AM 63.1 °F 42.6 °F 47% 30.04 in 10.0 mi WSW 10.4 mph 16.1 mph N/A   Unknown
11:15 AM 65.1 °F 42.4 °F 44% 30.03 in 10.0 mi SW 11.5 mph 17.3 mph N/A   Unknown
11:35 AM 67.1 °F 42.3 °F 40% 30.03 in 10.0 mi WSW 10.4 mph 18.4 mph N/A   Unknown
11:55 AM 68.9 °F 40.3 °F 35% 30.03 in 10.0 mi SW 10.4 mph 16.1 mph N/A   Unknown
12:15 PM 70.5 °F 39.4 °F 32% 30.02 in 10.0 mi SW 12.7 mph - N/A   Unknown
12:35 PM 71.8 °F 39.6 °F 31% 30.01 in 10.0 mi SW 11.5 mph 17.3 mph N/A   Unknown
12:55 PM 73.4 °F 38.7 °F 28% 30.00 in 10.0 mi West 9.2 mph 16.1 mph N/A   Unknown
1:15 PM 73.6 °F 36.0 °F 25% 29.99 in 10.0 mi West 11.5 mph 16.1 mph N/A   Unknown
1:35 PM 73.8 °F 34.3 °F 24% 29.99 in 10.0 mi WSW 11.5 mph 19.6 mph N/A   Unknown
1:55 PM 75.0 °F 35.4 °F 24% 29.96 in 10.0 mi SW 8.1 mph 19.6 mph N/A   Unknown
2:15 PM 74.8 °F 34.5 °F 23% 29.96 in 10.0 mi WSW 6.9 mph 17.3 mph N/A   Unknown
2:35 PM 74.5 °F 35.2 °F 24% 29.96 in 10.0 mi SW 17.3 mph 23.0 mph N/A   Unknown
2:55 PM 74.3 °F 35.1 °F 24% 29.95 in 10.0 mi SW 13.8 mph - N/A   Unknown
3:15 PM 74.1 °F 35.1 °F 24% 29.95 in 10.0 mi SW 11.5 mph - N/A   Unknown
3:35 PM 74.3 °F 36.3 °F 25% 29.95 in 10.0 mi SW 9.2 mph - N/A   Unknown
3:55 PM 74.8 °F 36.7 °F 25% 29.94 in 10.0 mi WSW 8.1 mph 16.1 mph N/A   Unknown
4:15 PM 75.2 °F 36.7 °F 25% 29.94 in 10.0 mi SW 8.1 mph 17.3 mph N/A   Unknown
4:35 PM 74.5 °F 37.4 °F 26% 29.95 in 10.0 mi SW 8.1 mph 17.3 mph N/A   Unknown
4:55 PM 74.8 °F 37.8 °F 26% 29.94 in 10.0 mi SW 4.6 mph 10.4 mph N/A   Unknown
5:15 PM 74.1 °F 38.3 °F 27% 29.94 in 10.0 mi SW 10.4 mph - N/A   Unknown
5:35 PM 73.6 °F 38.7 °F 28% 29.94 in 10.0 mi WSW 6.9 mph - N/A   Unknown
5:55 PM 73.0 °F 38.5 °F 29% 29.95 in 10.0 mi SW 6.9 mph - N/A   Unknown
6:15 PM 72.5 °F 39.9 °F 31% 29.93 in 10.0 mi SSW 5.8 mph - N/A   Unknown
6:35 PM 72.0 °F 41.2 °F 33% 29.94 in 10.0 mi South 3.5 mph - N/A   Unknown
6:55 PM 70.9 °F 41.5 °F 35% 29.94 in 10.0 mi SW 5.8 mph - N/A   Unknown
7:15 PM 70.3 °F 41.4 °F 35% 29.94 in 10.0 mi SSW 4.6 mph - N/A   Unknown
7:35 PM 67.1 °F 42.6 °F 41% 29.94 in 10.0 mi South 4.6 mph - N/A   Unknown
7:55 PM 66.4 °F 43.7 °F 44% 29.95 in 10.0 mi Calm Calm - N/A   Unknown
8:15 PM 65.7 °F 43.3 °F 44% 29.95 in 10.0 mi Calm Calm - N/A   Unknown
8:35 PM 64.6 °F 44.1 °F 47% 29.96 in 10.0 mi Calm Calm - N/A   Unknown
8:55 PM 61.9 °F 44.6 °F 53% 29.96 in 10.0 mi Calm Calm - N/A   Unknown
9:15 PM 59.9 °F 45.1 °F 58% 29.98 in 10.0 mi Calm Calm - N/A   Unknown
9:35 PM 57.6 °F 45.5 °F 64% 29.98 in 10.0 mi Calm Calm - N/A   Unknown
9:55 PM 55.6 °F 45.9 °F 70% 29.98 in 10.0 mi Calm Calm - N/A   Unknown
10:15 PM 54.9 °F 45.7 °F 71% 29.98 in 10.0 mi Calm Calm - N/A   Unknown
10:35 PM 54.5 °F 45.5 °F 72% 29.98 in 10.0 mi Calm Calm - N/A   Unknown
10:55 PM 53.1 °F 45.5 °F 75% 29.98 in 10.0 mi Calm Calm - N/A   Unknown
11:15 PM 52.0 °F 45.0 °F 77% 29.98 in 10.0 mi Calm Calm - N/A   Unknown
11:35 PM 51.8 °F 44.8 °F 77% 29.98 in 10.0 mi Calm Calm - N/A   Unknown
11:55 PM 51.6 °F 45.0 °F 78% 29.99 in 10.0 mi Calm Calm - N/A   Unknown